DW8052 Weather Reports


time (UTC)temp
C
wind
direction
speed
KPH
gust
KPH
rain 1hr
cm
rain 24hr
cm
rain mn
cm
humidity
%
barometer
mb
20260906101215 17 182 17.7 32.2 0.00 0.00 0.00 70 1021.5
20260906100715 17 177 16.1 29.0 0.00 0.00 0.00 70 1021.6
20260906100214 17 174 20.9 32.2 0.00 0.00 0.00 70 1021.3
20260906095714 17 176 19.3 35.4 0.00 0.00 0.00 70 1021.3
20260906095215 17 181 25.7 40.2 0.00 0.00 0.00 69 1021.2
20260906094714 17 174 20.9 37.0 0.00 0.00 0.00 69 1021.1
20260906094214 17 181 20.9 33.8 0.00 0.00 0.00 69 1021.0
20260906093715 17 162 25.7 41.8 0.00 0.00 0.00 69 1020.9
20260906093214 17 169 22.5 38.6 0.00 0.00 0.00 68 1020.8
20260906092714 17 184 24.1 41.8 0.00 0.00 0.00 69 1020.8
20260906092214 17 177 27.4 37.0 0.00 0.00 0.00 69 1020.7
20260906091714 17 173 27.4 45.1 0.00 0.00 0.00 69 1020.6
20260906091214 17 170 25.7 35.4 0.00 0.00 0.00 69 1020.8
20260906090715 17 177 20.9 38.6 0.00 0.00 0.00 69 1020.7
20260906090214 17 162 22.5 32.2 0.00 0.00 0.00 69 1020.5
20260906085714 17 168 25.7 35.4 0.00 0.00 0.00 68 1020.5
20260906085215 17 171 30.6 40.2 0.00 0.00 0.00 68 1020.5
20260906084715 17 162 27.4 41.8 0.00 0.00 0.00 67 1020.4
20260906083215 17 165 20.9 32.2 0.00 0.00 0.00 68 1020.4
20260906082714 17 172 27.4 40.2 0.00 0.00 0.00 68 1020.3
20260906082214 17 165 22.5 32.2 0.00 0.00 0.00 69 1020.2
20260906081214 17 172 25.7 38.6 0.00 0.00 0.00 69 1020.3
20260906080714 17 168 22.5 33.8 0.00 0.00 0.00 68 1020.0
20260906080215 17 173 25.7 35.4 0.00 0.00 0.00 68 1019.8
20260906075714 17 170 29.0 38.6 0.00 0.00 0.00 67 1019.7
20260906075215 17 168 20.9 35.4 0.00 0.00 0.00 68 1019.7
20260906074714 17 164 22.5 33.8 0.00 0.00 0.00 67 1019.8
20260906074215 17 174 22.5 32.2 0.00 0.00 0.00 67 1019.6
20260906073215 17 170 19.3 32.2 0.00 0.00 0.00 66 1019.5
20260906072715 18 158 24.1 37.0 0.00 0.00 0.00 66 1019.2
20260906072214 18 153 22.5 37.0 0.00 0.00 0.00 66 1019.4
20260906071214 18 155 19.3 37.0 0.00 0.00 0.00 64 1019.2
20260906070714 18 164 27.4 38.6 0.00 0.00 0.00 63 1019.0
20260906065714 18 161 22.5 33.8 0.00 0.00 0.00 61 1019.0
20260906065214 18 155 20.9 35.4 0.00 0.00 0.00 61 1018.8
20260906064714 19 148 22.5 35.4 0.00 0.00 0.00 60 1018.8
20260906064214 19 152 16.1 32.2 0.00 0.00 0.00 58 1018.9
20260906063714 19 153 20.9 33.8 0.00 0.00 0.00 57 1018.7
20260906063214 20 151 19.3 29.0 0.00 0.03 0.00 56 1018.7
20260906062714 20 161 20.9 27.4 0.00 0.05 0.00 55 1018.7
20260906062214 20 152 19.3 27.4 0.00 0.05 0.00 54 1018.6
20260906061215 20 141 25.7 33.8 0.00 0.05 0.00 50 1018.7
20260906055714 20 153 20.9 29.0 0.00 0.05 0.00 51 1018.5
20260906055215 19 141 19.3 32.2 0.00 0.05 0.00 50 1018.4
20260906054714 19 165 20.9 33.8 0.00 0.05 0.00 50 1018.3
20260906054214 20 158 25.7 35.4 0.00 0.05 0.00 49 1018.1
20260906053714 20 149 24.1 33.8 0.00 0.05 0.00 50 1018.0
20260906053214 20 149 24.1 32.2 0.00 0.05 0.00 48 1018.0
20260906052714 20 150 22.5 32.2 0.00 0.05 0.00 47 1017.9
20260906052215 20 153 22.5 32.2 0.00 0.05 0.00 47 1017.9
20260906051714 20 163 25.7 32.2 0.00 0.05 0.00 46 1017.8
20260906051214 20 156 20.9 32.2 0.00 0.05 0.00 48 1017.6
20260906050714 20 166 20.9 33.8 0.00 0.05 0.00 45 1018.0
20260906050214 20 159 19.3 32.2 0.00 0.05 0.00 44 1017.7
20260906045714 20 153 19.3 27.4 0.00 0.05 0.00 44 1017.5
20260906044714 20 141 14.5 24.1 0.00 0.05 0.00 44 1017.5
20260906043714 20 153 12.9 22.5 0.00 0.05 0.00 44 1017.4
20260906042714 21 130 12.9 22.5 0.00 0.05 0.00 40 1017.2
20260906042214 21 119 11.3 20.9 0.00 0.05 0.00 40 1017.1
20260906041714 21 156 12.9 22.5 0.00 0.05 0.00 39 1017.0
20260906041214 21 149 14.5 20.9 0.00 0.05 0.00 40 1017.1
20260906040714 21 140 12.9 22.5 0.00 0.05 0.00 41 1017.1
20260906035714 21 148 16.1 24.1 0.00 0.05 0.00 41 1017.1
20260906035214 21 141 16.1 24.1 0.00 0.05 0.00 40 1017.0
20260906034714 21 113 14.5 25.7 0.00 0.05 0.00 39 1017.0
20260906034214 21 138 16.1 24.1 0.00 0.05 0.00 38 1016.9
20260906033713 21 146 16.1 27.4 0.00 0.05 0.00 38 1016.8
20260906033214 21 145 12.9 22.5 0.00 0.05 0.00 38 1016.9
20260906032713 21 142 16.1 27.4 0.00 0.05 0.00 39 1017.0
20260906032214 21 140 19.3 32.2 0.00 0.05 0.00 38 1016.9
20260906030714 21 154 19.3 27.4 0.00 0.05 0.00 38 1016.8
20260906030214 21 147 20.9 32.2 0.00 0.05 0.00 37 1016.8
20260906025714 21 145 16.1 27.4 0.00 0.05 0.00 37 1016.9
20260906025214 21 159 20.9 32.2 0.00 0.05 0.00 36 1016.8
20260906024714 21 150 19.3 32.2 0.00 0.05 0.00 37 1016.9
20260906024214 21 145 22.5 33.8 0.00 0.05 0.00 36 1017.0
20260906023714 21 166 20.9 33.8 0.00 0.05 0.00 35 1016.9
20260906022714 21 158 20.9 33.8 0.00 0.05 0.00 35 1016.8
20260906022214 21 156 17.7 33.8 0.00 0.05 0.00 36 1016.8
20260906021714 22 161 16.1 32.2 0.00 0.05 0.00 36 1017.0
20260906021213 22 172 19.3 32.2 0.00 0.05 0.00 34 1016.9
20260906020713 22 157 22.5 32.2 0.00 0.05 0.00 34 1016.9
20260906020214 22 151 16.1 29.0 0.00 0.05 0.00 33 1016.8
20260906015714 22 151 9.7 33.8 0.00 0.05 0.00 34 1016.7
20260906014714 22 171 19.3 33.8 0.00 0.05 0.00 33 1016.8
20260906013713 21 186 27.4 37.0 0.00 0.05 0.00 32 1016.7
20260906013213 21 180 19.3 37.0 0.00 0.05 0.00 33 1016.7
20260906012713 22 182 22.5 41.8 0.00 0.05 0.00 33 1016.7
20260906011713 22 179 19.3 33.8 0.00 0.05 0.00 33 1016.8
20260906011213 21 198 16.1 37.0 0.00 0.05 0.00 33 1017.0
20260906010714 21 200 27.4 41.8 0.00 0.05 0.00 33 1016.8
20260906010214 21 215 20.9 33.8 0.00 0.05 0.00 32 1016.9
20260906005714 21 210 17.7 32.2 0.00 0.05 0.00 33 1017.1
20260906005213 21 192 20.9 37.0 0.00 0.05 0.00 33 1016.7
20260906004714 21 203 11.3 25.7 0.00 0.05 0.00 33 1016.7
20260906001714 20 245 19.3 32.2 0.00 0.05 0.00 37 1016.6
20260906001213 20 270 14.5 20.9 0.00 0.05 0.00 38 1016.6
20260905235713 19 267 19.3 32.2 0.00 0.05 0.00 38 1016.3
20260905234713 18 279 16.1 35.4 0.00 0.05 0.00 40 1016.3
20260905234213 18 276 19.3 29.0 0.00 0.05 0.00 39 1016.6
20260905233214 18 288 19.3 29.0 0.00 0.05 0.00 40 1016.3
20260905232713 18 281 14.5 27.4 0.00 0.05 0.00 41 1016.2
20260905232213 18 259 16.1 32.2 0.00 0.05 0.00 42 1016.2
20260905231714 17 269 22.5 33.8 0.00 0.05 0.00 42 1016.1
20260905231213 18 266 32.2 40.2 0.00 0.05 0.00 41 1016.0
20260905230714 17 259 20.9 35.4 0.00 0.05 0.00 43 1016.3
20260905230213 17 258 25.7 33.8 0.00 0.05 0.00 43 1016.0
20260905225213 17 270 25.7 33.8 0.00 0.05 0.00 43 1016.2
20260905224713 17 253 30.6 41.8 0.00 0.05 0.00 43 1016.2
20260905224214 17 280 25.7 37.0 0.00 0.05 0.00 44 1016.0
20260905223713 16 267 29.0 38.6 0.00 0.05 0.00 45 1015.9
20260905223213 16 268 33.8 48.3 0.00 0.05 0.00 45 1015.7
20260905222713 16 279 32.2 41.8 0.00 0.05 0.00 45 1015.6
20260905222213 16 270 35.4 46.7 0.00 0.05 0.00 45 1015.5
20260905221213 16 267 38.6 49.9 0.00 0.05 0.00 45 1015.4
20260905220713 16 256 30.6 46.7 0.00 0.05 0.00 46 1015.2
20260905220214 16 271 33.8 45.1 0.00 0.05 0.00 45 1015.3
20260905215713 16 270 29.0 45.1 0.00 0.05 0.00 46 1015.4
20260905215213 16 270 25.7 45.1 0.00 0.05 0.00 46 1015.5
20260905213713 16 268 25.7 41.8 0.00 0.05 0.00 46 1015.1
20260905213213 16 263 27.4 46.7 0.00 0.05 0.00 46 1014.9
20260905212713 16 270 20.9 37.0 0.00 0.05 0.00 47 1014.7
20260905212213 15 261 27.4 45.1 0.00 0.05 0.00 47 1014.8
20260905211213 15 266 19.3 40.2 0.00 0.05 0.00 48 1014.4
20260905210713 15 275 24.1 57.9 0.00 0.05 0.00 47 1014.3
20260905210213 15 270 41.8 61.2 0.00 0.05 0.00 47 1014.2
20260905205713 15 261 35.4 56.3 0.00 0.05 0.00 47 1014.2
20260905205213 15 267 35.4 53.1 0.00 0.05 0.00 48 1014.2
20260905204712 15 265 29.0 41.8 0.00 0.05 0.00 48 1013.9
20260905204213 15 263 29.0 40.2 0.00 0.05 0.00 49 1013.8
20260905203713 15 263 30.6 46.7 0.00 0.05 0.00 49 1013.8
20260905203214 15 259 29.0 41.8 0.00 0.05 0.00 50 1013.9
20260905202713 15 261 32.2 41.8 0.00 0.05 0.00 49 1013.4
20260905201713 15 264 30.6 38.6 0.00 0.05 0.00 50 1013.7
20260905201213 15 247 25.7 32.2 0.00 0.05 0.00 49 1013.7
20260905200213 15 219 20.9 32.2 0.00 0.05 0.00 48 1013.5
20260905195713 15 214 17.7 27.4 0.00 0.05 0.00 48 1013.6
20260905195213 15 239 19.3 32.2 0.00 0.05 0.00 49 1013.5
20260905194713 15 262 20.9 33.8 0.00 0.05 0.00 48 1013.3
20260905194213 15 249 14.5 29.0 0.00 0.05 0.00 47 1013.1
20260905193713 15 244 22.5 25.7 0.00 0.05 0.00 47 1013.1
20260905192713 15 207 6.4 19.3 0.00 0.05 0.00 47 1013.3
20260905192213 15 186 9.7 19.3 0.00 0.05 0.00 48 1013.3
20260905191713 15 201 16.1 27.4 0.00 0.05 0.00 48 1013.0
20260905191213 15 252 19.3 27.4 0.00 0.05 0.00 47 1012.9
20260905190713 15 276 16.1 41.8 0.00 0.05 0.00 47 1012.3
20260905190213 15 282 27.4 46.7 0.00 0.05 0.00 46 1012.3
20260905185713 15 276 29.0 45.1 0.00 0.05 0.00 46 1012.0
20260905185212 15 274 22.5 38.6 0.00 0.05 0.00 46 1012.5
20260905184713 15 276 22.5 38.6 0.00 0.05 0.00 46 1012.1
20260905183713 16 277 25.7 37.0 0.00 0.05 0.00 45 1011.8
20260905182713 16 261 20.9 35.4 0.00 0.05 0.00 45 1011.7
20260905182212 16 271 29.0 41.8 0.00 0.05 0.00 45 1011.9
20260905181212 16 270 27.4 46.7 0.00 0.05 0.00 44 1011.4
20260905180213 16 272 24.1 40.2 0.00 0.05 0.00 44 1010.9
20260905175713 16 259 29.0 45.1 0.00 0.05 0.00 43 1011.4
20260905174713 16 247 35.4 49.9 0.00 0.05 0.00 42 1011.1
20260905174213 16 248 30.6 46.7 0.00 0.05 0.00 42 1011.1
20260905173713 16 263 29.0 66.0 0.00 0.05 0.00 41 1011.0
20260905173213 16 274 40.2 69.2 0.00 0.05 0.00 41 1010.4
20260905172712 16 269 37.0 66.0 0.00 0.05 0.00 41 1009.9
20260905172212 16 280 37.0 61.2 0.00 0.05 0.00 42 1009.7
20260905171713 16 292 32.2 56.3 0.00 0.05 0.00 42 1009.6
20260905171212 17 280 32.2 53.1 0.00 0.05 0.00 42 1010.0
20260905170212 17 269 33.8 49.9 0.00 0.05 0.00 42 1010.3
20260905165713 17 267 27.4 41.8 0.00 0.05 0.00 42 1010.2
20260905165213 17 280 38.6 49.9 0.00 0.05 0.00 41 1009.9
20260905164712 17 279 29.0 49.9 0.00 0.05 0.00 41 1010.3
20260905164213 17 262 37.0 48.3 0.00 0.05 0.00 41 1010.6
20260905163713 17 277 35.4 46.7 0.00 0.05 0.00 41 1010.7
20260905163212 17 254 22.5 48.3 0.00 0.05 0.00 41 1010.8
20260905162213 18 254 14.5 27.4 0.00 0.05 0.00 42 1011.3
20260905161712 18 254 17.7 27.4 0.00 0.05 0.00 41 1011.1
20260905161212 18 273 16.1 27.4 0.00 0.05 0.00 40 1011.0
20260905160212 18 275 19.3 27.4 0.00 0.05 0.00 39 1010.8
20260905155713 18 272 25.7 35.4 0.00 0.05 0.00 38 1010.8
20260905155212 18 261 19.3 33.8 0.00 0.05 0.00 38 1010.9
20260905154712 18 272 25.7 32.2 0.00 0.05 0.00 38 1010.7
20260905153712 18 265 32.2 46.7 0.00 0.05 0.00 37 1010.9
20260905153212 18 259 33.8 46.7 0.00 0.05 0.00 37 1011.1
20260905152712 18 255 35.4 62.8 0.00 0.05 0.00 37 1011.0
20260905152213 18 262 48.3 72.4 0.00 0.05 0.00 37 1011.0
20260905151713 19 259 40.2 66.0 0.00 0.05 0.00 38 1010.8
20260905151212 19 253 38.6 56.3 0.00 0.05 0.00 39 1010.7
20260905150712 19 258 35.4 56.3 0.00 0.05 0.00 40 1010.6
20260905145712 19 263 38.6 53.1 0.00 0.05 0.00 43 1010.6
20260905145213 19 244 30.6 45.1 0.00 0.05 0.00 46 1010.4
20260905144712 19 242 29.0 37.0 0.00 0.05 0.00 47 1010.3
20260905144212 19 248 25.7 33.8 0.00 0.05 0.00 49 1010.2
20260905143713 20 252 22.5 33.8 0.00 0.05 0.00 48 1010.2
20260905143212 20 252 22.5 33.8 0.00 0.05 0.00 49 1010.0
20260905142713 20 258 19.3 27.4 0.00 0.05 0.00 49 1009.8
20260905142212 20 251 20.9 27.4 0.00 0.05 0.00 49 1009.7
20260905141712 20 261 20.9 27.4 0.00 0.05 0.00 49 1009.7
20260905141213 20 261 20.9 29.0 0.00 0.05 0.00 49 1009.5
20260905140713 20 262 27.4 37.0 0.00 0.05 0.00 49 1009.4
20260905140212 20 262 25.7 33.8 0.00 0.05 0.00 49 1009.3
20260905135712 20 262 27.4 37.0 0.00 0.05 0.05 49 1009.3
20260905135212 20 268 27.4 37.0 0.00 0.05 0.05 49 1009.1
20260905134212 20 259 32.2 41.8 0.00 0.05 0.05 50 1009.1
20260905133712 20 257 32.2 41.8 0.00 0.05 0.05 51 1009.0
20260905133213 20 256 29.0 41.8 0.00 0.05 0.05 52 1008.7
20260905132712 20 254 25.7 32.2 0.00 0.05 0.05 52 1008.8
20260905132212 20 253 22.5 29.0 0.00 0.05 0.05 53 1009.1
20260905131712 20 257 22.5 27.4 0.00 0.05 0.05 53 1008.9
20260905130712 20 259 19.3 25.7 0.00 0.05 0.05 53 1008.9
20260905130212 20 265 19.3 25.7 0.00 0.05 0.05 53 1008.8
20260905125712 20 266 20.9 27.4 0.00 0.05 0.05 53 1008.7
20260905124713 20 261 20.9 29.0 0.00 0.05 0.05 54 1008.8
20260905124212 20 262 16.1 24.1 0.00 0.05 0.05 55 1009.0
20260905123712 20 268 19.3 24.1 0.00 0.05 0.05 56 1008.9
20260905122712 20 250 17.7 27.4 0.00 0.05 0.05 58 1008.7
20260905122212 20 232 17.7 29.0 0.00 0.05 0.05 57 1008.9
20260905121712 20 222 8.0 14.5 0.00 0.05 0.05 56 1008.9
20260905121212 20 247 11.3 16.1 0.00 0.05 0.05 55 1008.5
20260905120713 20 245 9.7 12.9 0.00 0.05 0.05 55 1008.6
20260905120212 20 268 8.0 12.9 0.00 0.05 0.05 54 1008.4
20260905115712 21 267 8.0 11.3 0.00 0.05 0.05 53 1008.2
20260905115212 21 283 9.7 19.3 0.00 0.05 0.05 53 1008.2
20260905114712 21 304 14.5 20.9 0.00 0.05 0.05 53 1008.2
20260905113712 21 303 16.1 24.1 0.00 0.05 0.05 52 1008.1
20260905113212 21 303 19.3 24.1 0.00 0.05 0.05 53 1008.2
20260905112712 21 304 20.9 32.2 0.00 0.05 0.05 52 1008.3
20260905112212 21 304 22.5 25.7 0.00 0.05 0.05 53 1008.2
20260905111712 21 308 22.5 25.7 0.00 0.05 0.05 53 1008.1
20260905111212 21 304 17.7 29.0 0.00 0.05 0.05 53 1008.2
20260905110713 21 313 22.5 29.0 0.00 0.05 0.05 53 1008.3
20260905105712 21 317 20.9 27.4 0.00 0.05 0.05 52 1008.0
20260905105212 21 320 22.5 27.4 0.00 0.05 0.05 52 1008.0
20260905104712 21 319 24.1 32.2 0.00 0.05 0.05 52 1008.0
20260905102712 22 327 27.4 32.2 0.00 0.05 0.05 49 1008.1
20260905102212 22 310 25.7 32.2 0.00 0.05 0.05 49 1008.1
20260905101712 22 317 25.7 33.8 0.00 0.05 0.05 48 1008.0